Theta_e
309 311 313 313 312 314 319 318 317 320 321 325 326 324 314 315 314 316 318 325 323 318 328 318 312 314 314 315 315 316 322 325 324 321 325 318 321 317 318 321 324 325 323 322 328
309 310 312 313 312 313 316 319 317 320 319 322 325 324 324 321 320 319 324 322 323 322 317 313 318 313 315 315 315 319 324 323 319 319 319 317 320 319 319 322 322 324 322 321 327
308 310 311 313 313 312 313 316 319 318 320 324 324 325 323 319 319 320 321 318 321 322 323 317 313 313 315 315 315 316 322 317 316 316 315 316 316 317 319 322 323 322 325 321 326
308 309 310 313 313 313 314 315 319 317 320 323 324 323 322 318 321 322 318 317 321 324 321 317 316 314 318 316 314 316 314 314 314 314 314 316 314 316 318 323 318 320 322 321 323
308 310 310 311 313 314 314 314 319 317 320 322 323 322 315 319 320 320 323 320 321 321 323 314 314 315 319 320 315 316 315 314 313 312 312 313 315 316 315 318 318 318 320 320 321
308 308 309 310 313 313 314 315 318 317 318 322 323 322 319 321 320 318 312 324 321 321 324 321 315 316 315 316 321 320 315 313 311 313 312 314 314 313 316 316 317 317 318 319 319
306 307 307 309 309 312 314 314 315 318 316 321 323 322 322 322 321 323 322 320 323 323 328 327 326 321 318 316 314 314 316 315 314 313 314 313 316 315 316 315 318 317 318 319 319
305 305 306 306 309 310 311 313 313 317 316 318 323 321 321 322 321 319 320 319 323 327 328 329 326 319 321 318 314 316 318 322 322 314 314 314 323 317 315 315 317 320 323 321 319
305 305 305 307 307 307 307 313 313 313 316 317 321 321 318 320 319 317 319 316 318 323 322 326 316 315 313 319 316 313 326 325 324 314 315 315 322 316 313 314 316 318 322 323 324
304 305 304 305 306 306 306 308 313 314 317 316 319 317 312 317 320 319 315 319 317 321 312 315 315 315 315 321 328 320 320 318 324 316 312 314 317 317 312 313 316 316 318 322 324
303 305 304 302 303 306 306 311 314 316 315 317 314 320 318 315 319 319 312 315 311 316 315 314 319 321 317 317 319 318 316 320 315 315 315 318 318 320 319 312 312 315 315 318 318
303 302 303 303 302 302 305 308 314 312 318 317 317 317 314 316 313 311 310 314 313 317 314 313 322 321 319 317 314 312 313 317 315 310 313 317 315 316 316 315 313 313 314 315 316
302 296 296 300 302 300 302 305 311 313 316 316 315 314 313 314 315 311 312 312 316 314 315 319 319 314 316 316 315 311 314 314 317 311 311 312 315 315 313 312 311 311 312 313 314
299 298 301 302 302 301 301 305 308 313 315 315 313 314 310 313 314 311 312 314 313 315 314 317 312 312 315 316 318 317 311 313 311 312 318 310 321 318 314 314 311 312 312 313 314
300 300 301 302 301 302 302 307 307 313 318 312 312 312 311 313 310 309 312 311 314 313 314 316 310 312 314 315 313 318 310 311 311 312 311 313 313 316 311 312 313 313 313 314 315
300 300 302 301 301 302 304 303 308 313 319 311 310 311 311 310 312 309 307 309 310 311 313 308 307 311 314 312 313 307 309 309 309 311 315 315 313 316 315 314 315 314 314 313 315
300 299 301 302 301 301 299 302 306 316 308 309 312 312 312 310 310 310 309 309 313 314 315 307 308 306 308 310 308 310 314 313 315 315 317 307 309 314 313 313 312 313 313 312 312
299 299 301 301 301 301 301 302 306 312 312 308 310 312 313 309 311 311 311 311 310 316 318 317 315 308 308 312 311 312 315 317 319 316 316 305 312 313 312 312 312 309 310 309 309
299 299 300 301 301 300 301 305 309 311 309 310 311 314 313 309 311 310 310 311 312 311 319 318 314 307 306 306 311 312 313 312 309 303 311 312 311 310 311 311 309 309 308 309 309
300 301 301 301 301 301 302 304 306 306 306 310 313 315 314 311 311 312 311 311 311 308 308 312 312 307 306 307 306 311 310 311 311 316 316 313 310 313 312 311 311 309 309 309 310
300 301 300 300 300 300 303 302 305 306 304 311 313 314 316 312 313 315 312 313 311 307 307 313 311 308 307 309 310 309 310 310 313 311 315 314 314 311 313 310 310 310 308 306 308
299 302 301 299 302 301 303 304 305 305 307 307 312 314 314 314 314 315 315 313 310 308 309 309 310 310 309 307 307 311 311 311 313 311 309 309 314 307 309 310 306 308 307 306 307
300 301 302 301 304 304 303 303 304 305 306 307 310 312 311 313 313 313 313 312 309 309 310 309 312 314 311 309 307 309 308 311 311 309 314 317 315 306 305 306 307 307 308 307 308
300 301 299 301 301 304 304 305 307 305 306 308 308 309 312 313 311 312 312 308 309 309 309 309 310 315 313 310 309 309 309 309 310 315 312 311 313 309 308 308 308 308 308 308 308
300 302 301 302 302 304 304 306 307 308 306 307 307 310 312 313 312 310 309 308 309 309 309 310 313 310 308 310 310 310 309 308 308 310 311 313 312 311 311 309 309 308 309 309 309
298 300 299 301 302 304 305 306 307 308 307 308 308 310 311 312 312 310 310 310 310 308 309 307 314 310 307 306 309 311 309 309 309 310 310 311 311 307 310 309 307 308 308 309 310
298 300 301 303 304 304 306 307 307 307 307 308 308 309 310 310 310 309 309 309 308 309 309 310 310 311 314 308 310 312 310 310 310 310 310 310 311 308 307 307 309 309 308 307 308
Wind_Speed
23 22 25 26 35 29 28 28 27 29 38 30 22 32 31 24 26 25 27 23 21 16 17 14 10 10 9 8 6 7 4 6 5 5 2 4 7 4 6 5 7 10 4 6 21
22 22 26 27 25 27 18 29 27 30 29 31 22 19 35 22 22 27 32 25 21 24 20 15 12 12 5 6 7 5 4 9 3 5 1 4 7 7 5 7 7 9 11 10 23
21 24 24 26 27 38 27 27 28 29 28 29 22 22 25 25 10 20 31 28 26 18 22 16 16 12 4 5 5 4 5 6 3 4 4 2 5 6 7 7 14 16 17 15 23
22 23 23 21 27 27 33 25 29 30 31 29 21 22 19 29 8 15 28 29 27 26 19 18 15 10 6 7 4 4 3 4 6 6 3 3 3 5 13 13 4 12 16 18 22
22 20 23 22 27 25 29 24 26 30 31 28 28 32 26 20 22 8 23 30 26 26 26 21 20 10 7 6 6 5 5 5 4 4 4 3 5 5 10 17 12 7 16 19 20
23 22 20 21 20 30 27 27 19 32 32 31 32 35 35 19 28 9 4 31 33 30 26 24 14 11 9 5 9 4 7 5 2 3 4 4 3 4 6 13 18 13 16 19 21
25 21 20 19 27 14 29 28 31 32 33 33 38 35 34 32 28 25 14 18 34 34 30 23 15 14 11 5 3 3 2 1 5 4 4 5 7 9 10 7 15 20 19 19 21
26 22 18 18 18 23 18 28 26 22 34 32 38 42 18 30 26 19 17 13 25 30 28 27 18 12 6 11 6 2 3 3 5 8 5 6 16 8 9 13 15 17 17 19 21
26 21 20 19 20 18 22 26 31 24 35 31 40 45 8 27 32 31 27 26 24 24 17 20 16 9 10 11 5 2 5 12 3 11 4 10 10 5 7 14 18 18 17 18 19
29 23 20 20 20 18 19 17 29 29 32 28 25 19 14 33 42 34 28 26 22 25 19 15 8 4 4 10 9 7 5 5 7 6 7 7 15 14 7 11 18 17 18 19 20
32 28 23 19 16 16 17 18 22 16 33 35 18 29 23 26 35 34 29 33 23 27 11 18 10 16 18 14 4 10 7 10 4 3 4 13 16 17 19 13 14 19 18 21 25
34 32 27 24 21 19 17 25 12 5 24 39 23 37 21 36 20 31 34 22 21 19 17 9 20 14 15 13 5 3 4 8 5 1 5 12 18 17 20 21 21 20 21 22 23
31 27 27 23 22 23 24 30 13 25 10 37 23 28 30 28 24 35 46 22 24 23 24 19 13 20 16 16 14 6 9 7 6 0 5 8 16 18 14 23 20 22 23 20 24
27 25 23 22 18 24 30 26 16 29 6 10 10 16 25 22 9 33 40 25 10 24 22 11 14 21 18 20 21 12 12 10 5 4 7 2 8 8 6 16 15 25 28 30 30
28 26 25 24 10 17 16 27 26 29 7 16 8 15 26 20 27 22 39 13 20 19 13 12 17 20 20 22 19 6 11 9 3 6 4 9 7 4 4 10 17 25 29 34 33
28 26 23 19 21 15 15 23 17 9 9 7 12 12 16 14 18 30 15 14 12 9 5 4 3 14 15 11 18 16 11 5 2 2 9 14 10 8 10 15 16 22 29 35 42
29 25 24 22 15 15 13 9 5 9 6 9 8 18 20 9 14 28 21 15 13 13 16 5 8 4 10 14 9 10 16 4 5 6 7 2 7 13 7 15 14 15 17 20 27
30 25 22 19 13 7 10 2 4 3 7 5 11 23 13 11 13 30 28 18 12 11 14 15 9 16 10 10 12 21 18 7 9 7 4 2 9 4 10 22 22 18 18 17 13
29 25 21 20 16 11 15 3 3 4 6 15 20 21 7 8 10 22 29 29 22 14 11 16 8 7 8 6 16 16 16 5 5 2 1 6 5 10 16 15 11 16 16 21 20
30 22 18 21 18 17 3 9 5 1 9 19 9 21 12 16 14 21 27 27 22 15 1 9 7 8 4 7 1 15 12 8 4 6 6 5 5 9 5 12 8 9 12 18 20
28 12 13 22 21 13 4 8 8 9 10 16 15 13 20 18 21 27 37 16 26 15 5 13 5 6 8 12 18 9 14 6 7 4 3 2 4 8 13 7 6 9 14 13 15
24 5 16 32 6 3 5 9 10 2 18 10 10 13 24 32 23 22 24 10 32 22 15 5 5 8 22 4 3 13 14 14 6 7 3 1 5 4 7 7 4 9 8 4 8
20 7 27 34 8 8 5 7 11 9 10 6 12 13 17 22 12 20 15 20 36 23 20 10 3 6 5 5 2 16 10 22 9 1 7 5 5 5 2 5 6 5 5 4 5
13 5 6 13 5 8 8 7 7 13 9 13 8 9 21 19 7 17 15 9 30 24 22 12 4 5 10 6 8 8 13 13 13 4 6 15 15 1 3 6 3 6 5 5 7
7 5 6 5 7 10 13 12 13 7 9 19 8 18 23 15 16 12 8 8 14 22 8 10 6 3 3 6 10 7 12 11 15 26 12 31 18 16 11 3 2 4 5 5 7
9 5 5 3 13 12 13 10 13 8 9 7 14 23 22 15 20 19 20 17 15 10 16 2 4 9 2 2 4 5 14 22 27 22 26 26 28 0 13 19 12 16 13 11 7
8 10 7 8 6 8 7 7 14 13 13 13 12 15 16 14 22 16 17 23 18 17 13 8 5 5 16 5 6 3 27 22 23 26 26 25 17 13 8 11 24 27 30 26 21
Wind_Direction
243 241 238 232 238 249 223 225 228 221 219 227 226 217 190 187 202 204 203 208 200 186 191 189 193 178 171 160 146 142 172 205 204 193 230 157 198 166 200 165 181 191 169 183 180
242 240 237 231 227 237 227 224 225 223 213 217 219 213 218 187 197 214 204 202 193 190 167 182 179 169 168 151 152 182 216 200 183 178 206 197 205 174 187 188 202 194 193 173 183
242 238 235 231 221 248 252 229 223 222 216 207 216 203 218 195 231 225 200 194 188 181 193 177 171 170 145 163 158 183 216 171 187 192 185 194 202 197 203 215 220 213 194 189 188
240 244 238 235 231 226 232 231 219 215 216 211 205 190 201 203 216 219 208 190 186 180 168 186 196 161 157 170 168 176 172 167 156 169 169 196 163 212 216 227 220 225 211 204 195
233 239 238 235 225 220 229 234 211 211 215 208 203 186 212 194 221 232 189 197 190 186 191 185 178 171 174 169 143 230 149 186 181 195 218 239 223 246 244 235 240 230 206 212 208
231 233 239 237 234 221 228 221 215 209 218 210 208 190 182 211 233 205 221 194 199 196 199 192 185 169 128 150 200 207 175 139 176 213 217 219 227 196 249 230 222 219 213 213 217
231 230 231 236 240 244 229 222 232 204 213 211 209 187 191 197 222 232 237 206 200 202 196 192 200 186 149 114 129 97 119 281 220 212 241 201 232 224 238 239 214 214 216 216 217
228 229 226 224 231 245 245 214 229 212 206 212 215 199 201 199 210 245 235 212 203 203 202 192 193 155 153 124 70 273 251 169 217 194 219 202 258 245 229 217 219 220 218 218 222
223 220 219 216 209 235 249 223 228 238 202 211 194 198 195 193 208 223 222 208 190 188 182 181 164 172 147 141 111 356 220 216 233 208 200 210 260 251 223 213 226 219 221 224 226
220 215 212 216 217 219 249 250 217 230 201 206 220 171 185 191 192 202 196 199 172 167 152 158 163 139 133 175 184 177 218 231 211 174 213 211 246 255 242 231 238 228 223 225 229
217 216 211 212 216 215 228 236 203 208 219 194 183 201 192 183 186 196 188 170 159 162 170 183 183 194 174 181 187 184 161 240 224 187 223 237 252 253 249 233 244 239 223 223 229
219 217 222 221 225 222 217 226 226 200 181 200 227 197 177 174 162 178 173 159 171 177 159 172 213 193 180 180 141 135 124 242 271 174 221 264 261 259 251 239 236 238 236 231 230
217 213 214 215 224 223 228 240 243 223 204 198 201 187 177 181 171 171 169 174 182 171 181 186 184 162 165 182 184 195 195 212 259 158 236 287 272 250 241 233 236 240 241 241 236
204 200 196 205 216 220 221 229 245 218 207 169 195 195 170 176 158 175 175 163 178 192 178 195 171 168 170 182 184 190 197 218 214 229 253 246 281 245 265 236 220 233 234 238 239
196 199 197 206 207 200 239 226 252 213 214 154 159 171 160 174 137 190 175 194 179 169 170 177 166 172 185 186 185 192 167 185 176 242 280 228 263 247 262 257 239 230 232 236 238
194 196 195 201 223 211 203 227 269 196 196 148 137 166 144 199 167 159 181 183 147 145 182 116 173 179 189 170 183 137 120 96 123 260 257 245 230 252 241 248 250 240 236 235 239
191 195 194 196 211 234 222 204 272 201 150 157 156 161 156 162 176 165 179 168 163 150 182 153 169 115 149 139 168 180 162 156 221 218 247 88 240 256 245 249 235 250 247 238 237
187 190 198 192 178 176 182 110 253 86 167 142 155 150 166 148 202 174 175 181 199 205 156 172 198 180 172 189 173 187 179 184 188 199 200 140 239 234 249 254 262 264 264 258 255
178 185 190 194 191 184 146 197 250 266 157 149 150 156 138 169 162 178 179 189 189 186 163 181 172 164 181 146 156 182 209 161 105 22 223 211 252 261 254 261 268 266 261 255 241
167 171 194 184 186 173 183 192 276 124 321 152 151 186 158 161 159 176 186 196 189 190 193 183 128 188 136 120 166 188 150 187 229 192 228 212 251 234 207 233 265 270 254 258 245
158 152 191 194 181 169 207 181 227 278 245 207 170 174 181 171 178 187 187 179 188 172 164 169 117 156 158 202 181 159 192 192 189 221 237 259 227 219 234 170 271 291 267 288 227
154 147 174 171 167 196 187 174 170 287 239 270 197 179 182 178 178 186 188 180 184 166 171 150 106 154 190 52 257 197 195 191 190 194 255 17 256 176 213 204 271 315 298 271 225
146 125 162 175 190 174 186 201 197 201 243 258 193 198 171 174 177 197 177 213 172 174 175 170 125 115 151 231 211 205 190 205 204 86 198 185 244 44 180 225 278 283 292 270 215
147 155 172 185 213 173 159 195 197 194 227 232 249 167 160 181 134 186 165 167 181 181 178 146 133 150 187 204 133 191 199 202 202 225 186 235 236 350 214 235 235 229 249 247 225
147 182 178 164 189 197 180 192 189 177 207 221 242 178 169 171 184 166 155 137 180 186 158 174 161 106 91 160 163 160 181 178 197 226 210 246 243 232 251 243 225 237 210 211 232
141 158 156 158 156 179 190 207 194 157 181 201 227 179 170 167 184 178 171 170 172 181 181 246 175 175 92 95 135 163 185 193 210 216 231 248 257 101 239 231 232 229 230 230 247
156 144 158 172 160 176 197 192 196 169 207 216 218 181 187 183 187 158 159 169 148 161 173 167 119 135 217 141 98 287 212 204 217 219 227 236 239 191 208 222 237 249 254 253 250